Theta_e
297 298 298 297 298 298 298 297 297 298 297 298 299 298 298 298 299 298 299 300 301 306 306 312 313 314 314 315 316 315 318 315 314 318 318 313 311 315 318 318 318 317 317 319 317 320 321 319 319 318 318 317 316 315
298 297 297 298 298 298 298 298 298 297 299 298 298 298 300 300 300 299 300 301 305 310 304 308 310 314 315 315 316 315 316 315 317 317 316 313 312 312 315 319 316 319 317 318 318 318 318 319 318 316 315 313 312 313
297 298 299 299 299 298 298 298 297 299 299 299 298 301 308 309 308 301 302 306 309 304 302 306 304 308 312 316 316 314 309 312 314 316 312 309 314 312 315 313 317 316 317 317 320 318 318 317 313 311 311 311 311 310
298 299 300 299 299 298 298 297 298 300 299 299 299 303 306 306 306 308 310 309 309 306 301 300 303 305 308 313 317 315 317 313 311 311 303 305 309 304 309 309 310 313 314 317 318 317 316 314 311 309 310 309 310 310
298 299 298 298 298 297 296 299 301 300 300 299 299 303 305 309 310 310 311 309 309 310 300 300 302 302 306 312 315 315 315 312 308 303 302 305 301 304 302 304 306 309 312 312 312 312 312 311 311 307 307 308 311 311
298 297 297 297 297 296 298 300 301 300 300 300 300 300 302 305 308 310 308 307 311 307 303 300 300 301 302 305 308 310 311 308 302 301 300 300 302 304 306 306 307 309 309 309 310 310 309 306 304 305 305 309 309 310
298 297 297 297 296 297 299 300 301 301 300 300 300 300 300 304 307 307 302 302 305 305 301 299 300 300 301 302 302 302 302 301 302 300 300 301 303 303 304 305 306 306 307 307 305 303 303 303 304 304 306 306 308 305
297 296 296 296 297 298 299 300 300 301 301 300 300 300 300 300 301 301 301 303 306 302 300 300 299 300 301 301 302 302 301 301 301 301 301 301 303 301 302 303 303 303 303 303 304 305 305 305 305 306 305 305 305 305
298 298 297 297 297 298 299 300 300 300 300 301 300 300 301 301 300 300 300 301 301 302 301 300 301 302 301 300 301 302 301 301 301 300 300 302 300 303 303 302 303 303 304 305 305 305 304 304 304 304 304 304 304 304
298 298 299 299 299 299 299 299 300 300 301 300 300 300 300 300 301 301 300 301 300 302 303 300 300 302 301 301 300 300 301 300 300 300 301 299 302 302 302 302 303 303 303 303 302 302 302 302 302 303 303 303 303 302
298 298 298 299 299 299 299 299 299 299 300 300 299 300 300 300 300 299 299 298 298 300 302 300 301 301 301 300 299 299 298 299 302 301 301 302 303 302 302 302 303 303 303 302 302 302 301 301 300 300 299 299 299 298
298 298 298 299 299 299 298 299 299 299 300 300 300 299 299 299 299 298 299 299 300 302 301 300 300 301 302 302 300 298 300 299 303 300 300 302 301 302 302 302 302 302 302 301 300 300 299 298 298 296 295 295 295 295
297 297 298 299 299 299 299 300 299 300 300 300 299 299 299 298 295 299 299 301 302 299 302 302 299 302 303 302 298 299 299 299 300 298 301 301 301 301 301 301 299 298 297 296 296 295 296 295 296 296 294 293 294 294
296 297 297 296 297 299 299 300 300 300 300 301 296 291 292 292 299 299 299 299 300 301 301 301 298 299 301 299 297 299 299 299 296 295 301 296 300 300 300 299 297 295 295 296 295 295 295 295 295 294 294 294 294 293
296 296 297 297 297 298 297 298 297 299 300 300 299 293 298 299 299 300 302 302 301 302 301 299 298 299 295 296 297 298 297 298 300 300 296 299 300 300 298 297 295 295 295 294 295 294 293 293 294 293 293 292 291 290
296 296 297 297 297 297 299 300 300 300 300 300 301 297 296 293 294 300 300 301 301 301 301 301 296 295 298 297 299 297 300 299 297 295 300 300 300 299 298 296 296 295 294 293 292 292 292 293 293 291 290 289 288 287
296 296 296 296 297 297 298 299 300 299 299 300 296 300 298 296 297 299 301 301 301 301 294 295 297 299 294 297 299 297 296 295 299 301 301 300 299 298 296 296 295 295 293 292 292 291 291 290 290 289 288 287 287 287
296 295 296 296 297 297 297 298 299 299 297 300 295 300 299 298 297 298 299 300 301 301 300 299 298 300 294 300 296 294 300 301 301 301 300 299 299 297 296 295 295 294 294 292 291 290 290 290 289 288 287 287 287 286
295 295 293 295 296 297 297 296 298 297 297 299 300 299 299 298 298 298 298 299 300 300 300 298 298 297 296 294 293 300 302 301 299 299 299 298 297 296 294 294 294 294 293 292 291 290 290 289 289 288 287 287 287 285
289 293 291 291 292 295 296 296 297 298 296 298 300 299 299 298 298 298 298 298 299 299 298 296 296 297 299 301 301 301 302 301 299 297 296 295 295 294 294 294 294 293 292 291 291 290 289 289 288 288 287 286 285 284
288 288 288 289 291 297 297 297 297 296 297 298 299 299 298 298 297 297 297 298 298 297 293 298 299 300 300 300 300 301 301 300 299 299 295 294 294 293 293 293 293 292 291 291 290 290 288 288 287 286 285 284 282 280
291 290 289 292 294 294 295 295 296 296 297 297 298 298 296 288 295 297 296 295 296 297 297 297 298 298 299 300 299 298 299 300 298 297 296 294 293 293 293 292 292 291 291 290 289 289 288 287 286 285 284 281 280 279
291 292 294 293 294 294 294 295 295 296 295 295 296 295 294 293 297 296 292 296 296 296 295 296 296 298 298 299 299 300 300 299 297 295 294 293 293 293 292 292 291 291 290 290 289 288 288 287 286 284 282 280 280 279
291 293 293 294 293 284 294 293 295 294 295 295 295 294 294 292 296 293 294 295 297 296 296 296 296 296 296 298 298 299 298 298 297 295 294 293 293 292 292 291 291 290 290 289 288 288 287 286 285 283 281 280 280 279
290 289 292 284 293 288 286 286 291 293 288 291 294 293 291 296 291 291 292 292 296 296 296 297 297 296 297 298 298 298 297 297 296 295 293 293 293 292 291 291 290 290 290 289 288 287 286 285 283 281 280 279 279 279
284 289 288 286 284 288 290 285 284 286 289 289 291 294 295 289 288 288 292 297 298 298 297 297 297 296 297 297 298 297 296 296 296 295 293 293 292 291 291 290 290 290 289 289 288 287 286 284 282 281 280 279 279 278
284 281 291 291 292 293 287 290 293 288 285 285 288 286 286 287 284 288 295 296 296 296 297 298 297 297 297 298 299 298 296 296 296 296 295 293 293 292 292 291 291 290 289 288 287 287 285 284 281 280 279 278 278 277
289 291 286 290 291 292 283 284 285 287 288 294 291 286 288 288 289 295 296 295 294 294 295 296 298 298 298 298 298 297 296 296 297 296 294 294 293 292 292 291 290 289 288 287 286 285 284 282 281 280 278 277 277 276
290 291 291 284 288 290 287 286 287 294 295 294 286 286 288 295 295 294 293 291 291 292 292 293 295 297 298 298 298 298 297 296 296 295 294 293 292 292 291 291 290 288 287 286 284 283 282 281 279 279 278 277 276 276
288 290 288 281 283 286 289 293 294 294 295 295 295 294 294 293 293 292 291 291 290 290 291 291 292 293 295 296 297 296 296 296 296 295 294 294 293 292 291 290 289 288 287 285 283 282 280 279 278 278 277 276 276 276
289 289 289 288 284 291 291 292 293 293 294 294 294 294 293 292 292 292 291 290 289 290 290 290 290 291 292 294 295 295 295 294 295 294 293 293 293 292 291 289 288 287 286 284 282 280 279 279 278 278 277 276 276 275
289 289 281 282 282 291 291 292 292 292 293 292 292 292 291 291 291 291 289 289 290 290 289 289 289 290 290 291 293 294 294 293 292 291 291 292 292 291 289 288 287 286 284 281 280 279 279 278 278 277 276 275 275 275
289 290 290 290 290 290 291 291 291 288 291 291 291 292 292 291 289 289 289 288 288 288 289 289 289 289 288 289 290 290 290 290 290 291 291 290 289 288 288 287 285 283 281 280 279 278 278 277 277 276 276 276 275 275
Wind_Speed
37 37 33 31 28 27 27 27 27 26 27 29 30 34 41 50 55 57 61 48 56 19 3 29 30 31 29 25 13 11 11 2 3 9 8 5 3 8 5 6 11 10 8 8 4 6 22 10 4 13 4 9 8 2
33 35 35 30 27 25 20 21 20 24 24 22 23 31 41 63 73 67 46 50 55 29 9 24 22 34 42 44 36 12 16 8 9 4 2 4 2 1 4 12 3 12 9 7 9 7 2 5 12 14 9 5 2 4
35 34 29 23 19 17 14 13 16 17 12 9 13 22 10 32 66 82 55 50 38 24 18 14 17 14 23 33 43 20 7 15 12 12 4 1 3 4 5 4 5 0 2 5 0 8 1 15 19 10 7 7 4 9
32 27 15 7 4 6 7 9 10 4 3 7 15 25 47 57 62 60 52 44 32 17 5 8 18 17 11 14 33 40 31 20 23 14 5 2 3 3 3 2 2 1 2 3 11 3 7 9 7 8 8 10 14 7
27 22 14 9 5 1 1 2 4 7 8 13 20 28 48 45 38 50 31 24 29 15 4 7 20 21 17 16 18 25 30 28 9 5 3 2 4 3 2 2 3 5 5 5 4 1 2 5 7 5 9 7 13 12
21 18 14 13 8 6 6 7 8 11 9 16 22 25 21 35 41 41 13 14 21 28 13 3 7 13 17 22 24 27 23 18 10 7 4 4 5 3 3 3 3 10 9 11 5 11 13 12 9 6 12 11 13 11
19 16 15 13 10 9 9 11 12 12 12 14 15 24 27 19 28 15 10 17 26 18 10 4 3 4 15 14 21 21 17 13 8 6 3 4 3 6 2 3 6 10 13 15 13 8 9 4 6 8 2 5 5 3
18 17 15 12 10 12 12 14 15 15 14 15 17 23 27 36 40 35 30 26 23 16 11 4 3 4 6 3 4 4 6 7 5 4 4 2 7 2 3 7 10 7 2 3 0 2 3 5 3 4 3 3 4 2
21 19 16 13 12 13 14 15 16 17 17 16 19 20 22 21 13 21 24 25 25 10 3 3 4 4 8 4 6 5 4 2 3 2 1 4 1 3 5 7 9 5 5 5 3 1 1 3 3 2 1 2 1 4
20 19 18 15 15 14 14 15 15 18 16 13 5 8 8 8 19 12 6 5 6 5 4 3 5 3 8 4 2 3 3 3 2 3 10 2 3 10 9 10 8 9 8 6 4 3 4 6 5 5 5 5 4 4
16 18 17 16 14 14 13 13 13 12 10 8 8 7 19 9 4 7 5 4 4 3 4 5 8 7 6 3 3 3 2 2 2 3 4 3 2 2 14 17 16 11 7 5 5 5 3 3 2 3 3 4 5 4
15 13 14 10 18 17 14 14 9 4 5 5 13 11 2 5 6 5 2 1 3 3 2 5 10 10 8 4 3 2 3 2 3 7 3 2 2 17 28 22 15 9 6 4 3 4 4 4 7 8 9 10 10 10
13 15 11 16 14 10 3 11 23 19 13 3 3 4 5 5 8 3 1 2 2 2 6 9 5 5 4 4 3 3 3 2 6 3 2 3 10 19 23 19 14 9 8 8 7 7 8 10 10 9 13 13 12 11
10 12 16 18 14 13 14 12 11 3 5 3 3 5 3 4 3 2 1 3 3 15 21 18 5 3 3 3 2 4 2 3 3 2 4 2 17 24 20 14 11 12 11 9 8 13 15 15 14 14 12 10 8 7
3 6 7 8 11 8 8 5 7 8 4 4 4 3 3 1 3 6 6 8 14 29 19 11 6 5 2 3 1 3 3 2 4 4 3 16 25 23 19 15 15 17 15 15 17 19 18 16 14 12 9 8 7 7
5 2 2 2 4 6 3 4 8 6 4 4 6 4 2 4 6 11 15 14 18 23 14 7 3 3 2 3 2 3 5 4 3 3 15 27 23 20 18 15 17 17 16 18 18 17 14 11 12 12 11 9 8 6
8 5 3 3 3 3 7 4 5 4 3 3 2 8 10 10 4 4 6 10 15 9 2 3 3 4 2 2 2 3 4 3 7 21 25 24 23 22 18 18 19 17 17 16 15 13 13 12 11 11 11 9 5 3
8 6 2 3 5 4 3 4 3 3 3 3 3 4 6 9 11 6 7 10 7 3 2 2 2 2 4 4 2 3 2 13 19 21 21 21 18 15 14 18 17 15 14 15 14 14 13 10 7 8 7 5 3 2
8 4 0 3 4 3 1 1 1 1 0 3 8 8 6 10 10 5 6 11 4 5 3 2 2 2 3 3 3 11 24 23 22 19 18 16 14 13 16 20 20 19 18 16 17 15 13 8 7 7 6 8 6 5
9 7 2 3 5 2 1 1 2 1 1 4 9 10 8 5 9 8 8 11 8 2 1 1 3 3 3 6 10 13 22 23 26 25 20 18 14 16 21 23 22 18 15 17 17 15 13 12 10 7 5 5 5 5
7 7 5 5 5 2 1 1 2 3 2 4 11 13 5 14 8 8 8 10 4 4 2 8 8 5 6 5 5 9 17 23 25 21 26 23 19 20 22 20 19 16 22 19 17 12 10 9 6 4 2 2 2 2
5 7 5 6 2 2 2 3 2 3 3 5 9 8 7 2 5 8 9 6 5 8 8 8 10 12 8 8 7 9 11 16 17 12 18 23 27 25 23 20 18 20 18 15 12 11 9 8 6 4 3 2 1 2
7 7 4 3 3 3 4 2 2 2 2 2 6 3 1 3 6 12 3 7 8 15 18 18 18 13 6 8 13 14 16 18 17 16 22 25 24 24 21 19 17 17 16 13 11 10 10 10 7 5 4 4 3 4
6 3 1 2 5 3 2 1 2 2 2 3 3 3 2 3 6 2 3 5 17 15 14 15 19 17 17 13 19 20 18 17 17 17 21 25 23 20 19 17 15 14 12 11 11 11 11 10 9 7 7 6 5 5
2 3 2 3 3 3 2 2 2 1 3 3 5 2 2 4 1 1 3 4 10 16 17 17 17 18 20 18 20 20 20 21 23 21 23 23 22 20 18 16 14 14 13 13 14 13 13 11 9 9 8 8 8 7
2 4 6 5 2 4 5 3 3 4 3 1 3 3 3 3 2 5 2 2 4 6 3 15 19 21 21 20 20 24 24 23 19 18 21 24 25 25 23 21 20 18 16 13 13 15 14 11 11 11 10 9 9 8
3 4 5 7 4 3 1 2 3 3 3 3 2 2 3 2 4 4 4 1 1 3 4 4 15 20 20 21 18 16 24 25 24 19 15 15 13 14 12 12 14 14 15 16 14 12 11 12 12 11 10 11 10 7
6 3 5 4 3 4 3 1 3 4 3 4 5 2 7 7 4 2 3 4 3 4 5 4 5 15 18 17 17 17 23 25 20 21 22 21 18 14 12 11 8 10 11 12 12 11 10 10 12 11 10 11 12 9
4 4 6 2 1 1 3 5 3 3 1 7 5 3 3 3 4 3 3 2 4 5 6 4 6 10 14 18 20 22 18 20 21 23 26 25 22 19 17 14 12 13 14 14 13 10 10 9 9 9 8 8 8 8
4 5 3 2 5 4 4 3 2 3 2 2 4 5 4 3 3 1 2 2 2 1 1 3 4 8 13 17 22 25 26 26 25 21 21 25 22 19 19 17 16 16 16 14 15 16 15 14 14 13 11 10 10 10
5 8 3 4 3 7 11 7 3 2 2 2 2 4 4 2 2 2 3 2 3 3 4 5 7 8 11 16 21 23 25 24 20 15 13 16 20 19 18 18 17 17 16 15 15 15 15 15 14 13 11 11 10 9
5 7 5 3 3 3 3 3 3 4 3 3 3 4 2 2 2 3 3 3 5 7 7 7 8 10 11 10 15 20 20 19 16 15 16 15 15 17 19 19 19 17 16 15 15 14 14 14 15 14 12 12 11 9
9 6 4 5 3 5 7 7 5 1 3 5 8 10 9 6 4 4 2 4 5 6 7 7 7 8 11 13 14 14 14 16 15 16 14 12 12 15 18 20 18 17 17 17 16 17 17 15 14 14 14 12 10 9
Wind_Direction
310 306 303 301 293 283 276 274 273 277 277 275 245 247 231 224 218 209 215 212 213 233 137 182 192 186 192 191 187 193 167 225 153 179 178 192 178 213 208 193 196 179 169 207 186 211 260 135 161 202 178 121 128 80
317 310 304 295 287 283 277 272 276 278 281 247 260 261 249 240 225 208 209 216 205 218 129 118 159 194 197 199 196 160 184 162 168 133 189 133 141 121 143 229 139 220 200 197 183 214 95 75 125 108 90 125 81 353
324 317 304 289 280 269 271 270 274 277 239 282 298 335 204 188 190 194 195 184 178 134 82 106 72 110 183 197 197 184 190 173 162 161 117 117 200 118 172 233 191 333 119 219 47 224 143 124 113 68 73 6 328 349
343 341 329 287 258 268 265 278 277 293 23 356 31 68 121 132 150 161 161 159 152 113 93 56 84 77 81 180 190 199 197 171 156 142 97 158 150 203 159 131 183 159 64 280 249 87 82 126 72 44 3 14 287 300
5 17 35 65 86 66 322 308 23 135 77 63 54 82 109 149 158 162 159 145 149 129 120 112 80 65 78 114 164 171 169 149 121 81 92 141 124 128 77 78 226 201 170 166 223 108 286 276 275 317 324 294 266 270
21 31 47 66 65 58 79 59 108 119 105 88 63 53 100 116 137 145 140 124 152 122 103 81 70 84 82 100 110 114 126 110 98 104 86 109 169 129 147 177 228 172 207 210 197 229 225 250 272 255 264 270 264 270
29 43 47 53 50 85 84 79 106 108 105 99 81 52 64 118 132 114 110 105 130 127 90 96 78 94 109 84 85 81 84 86 91 99 99 129 165 148 125 186 199 187 203 210 220 238 220 245 281 314 301 299 280 330
37 44 47 48 70 90 93 89 100 107 109 96 84 66 86 90 95 87 92 98 121 82 79 104 106 123 128 97 106 90 89 74 58 104 104 121 130 130 235 227 238 245 225 282 175 322 307 326 18 74 10 348 337 4
44 51 59 71 81 98 102 102 101 109 111 109 99 65 93 62 60 88 78 71 68 86 102 128 140 130 141 93 92 84 99 92 90 87 101 128 119 224 232 215 221 224 203 165 178 211 31 80 78 40 27 60 72 116
43 53 58 71 87 91 101 111 113 114 124 118 26 54 34 55 103 104 73 55 58 56 67 74 98 99 133 125 94 128 88 121 132 196 132 149 239 242 209 193 214 177 180 206 195 139 83 76 66 57 56 71 90 103
54 51 58 75 79 93 95 109 119 113 91 11 39 39 116 98 39 47 42 44 354 44 48 90 129 127 131 116 137 118 155 141 129 167 149 172 245 221 183 160 156 167 174 141 121 111 88 71 62 70 86 103 110 106
49 61 53 71 106 114 108 107 115 121 359 86 119 112 36 25 46 76 54 54 43 135 79 114 126 108 100 111 100 172 102 91 161 140 101 190 232 138 141 141 143 149 150 141 139 138 125 121 119 122 122 121 120 120
47 49 82 65 58 117 67 129 102 100 93 64 24 51 12 345 38 73 102 31 109 124 120 132 97 106 113 100 67 90 86 173 114 59 193 220 138 143 147 145 138 142 148 138 123 122 115 113 117 131 129 120 117 112
52 46 79 48 55 111 68 75 80 76 352 358 78 22 92 351 22 343 261 136 113 127 120 106 71 95 79 60 100 91 145 92 67 119 229 218 151 156 154 151 150 137 136 132 131 130 127 129 132 130 126 123 123 119
115 56 58 78 73 63 28 53 359 2 0 6 47 46 63 352 15 11 62 86 116 138 126 97 64 83 34 89 63 99 64 164 196 210 217 156 157 158 155 152 153 152 157 157 154 151 150 150 145 140 133 125 117 107
184 212 116 80 102 62 22 6 11 10 24 25 42 65 47 54 347 45 66 100 124 126 113 53 72 55 47 116 90 189 148 192 238 206 147 155 161 163 157 158 157 154 155 153 149 150 153 147 142 137 126 115 107 95
198 204 209 210 210 31 40 38 17 21 36 53 352 81 97 100 120 90 93 117 136 119 103 104 100 189 102 94 184 185 196 212 167 145 157 169 169 164 159 158 158 155 156 156 150 145 145 139 137 135 132 120 111 95
202 215 225 229 235 270 339 16 25 21 56 103 95 105 93 127 145 156 157 159 160 77 95 108 127 115 150 172 248 230 143 142 152 160 165 169 168 167 169 162 161 161 157 157 154 156 147 143 138 136 137 146 164 212
198 190 167 167 159 150 51 23 12 85 222 102 129 131 115 138 149 137 145 174 149 100 76 32 83 193 217 214 169 155 157 161 157 157 162 167 173 173 169 169 169 169 167 170 165 164 158 163 186 179 178 195 215 197
214 217 240 173 163 149 139 186 213 208 198 169 155 148 134 156 162 167 164 180 194 142 65 221 216 219 162 127 168 174 178 176 165 150 153 160 167 173 172 170 171 170 172 164 164 172 176 180 187 206 217 215 224 244
167 190 193 178 179 149 162 268 214 228 172 166 169 156 139 155 153 178 178 177 174 203 233 232 220 176 154 157 157 178 192 191 189 184 177 166 174 169 166 168 173 183 171 178 178 188 194 195 199 213 238 241 249 241
160 144 139 148 132 168 247 215 265 303 207 156 163 168 137 118 152 191 184 180 212 214 216 221 220 220 199 193 203 201 196 192 188 193 182 171 168 172 174 178 179 177 180 189 198 200 203 218 236 247 255 208 164 168
125 142 127 153 173 187 238 241 208 221 141 195 141 119 180 168 206 172 191 214 225 235 239 231 225 224 238 226 204 190 185 188 185 176 174 173 174 176 178 180 183 182 186 194 205 211 220 221 217 220 217 187 171 159
127 136 179 217 197 227 210 311 215 244 180 149 144 160 200 216 174 175 226 222 243 250 242 246 232 228 226 212 191 192 193 193 182 170 173 167 169 176 181 182 187 194 203 204 208 215 215 211 221 218 201 205 199 193
156 227 201 274 214 83 92 330 285 174 213 207 144 206 227 152 99 280 235 262 271 257 249 239 219 214 207 205 203 196 193 192 187 178 176 178 174 172 178 187 197 208 210 210 203 209 206 207 212 206 202 199 202 209
167 223 165 199 253 149 194 157 210 212 161 145 202 141 96 91 125 249 238 341 2 6 282 226 213 203 205 209 200 192 195 196 200 191 183 185 185 185 185 190 196 204 211 215 216 211 207 211 209 203 202 202 203 209
229 268 207 212 218 201 358 228 196 114 152 176 186 97 91 144 239 253 173 163 196 21 11 232 221 212 205 203 208 214 204 198 201 205 191 186 190 197 204 208 216 218 207 206 211 220 222 211 204 203 205 203 203 210
241 249 171 202 189 198 166 339 168 176 212 174 118 154 172 190 229 214 206 211 252 274 267 258 226 212 216 209 198 187 191 197 196 200 195 191 195 201 205 208 213 209 208 205 207 202 203 202 201 205 201 199 191 193
247 237 186 137 106 172 198 188 222 213 203 161 147 195 221 157 183 219 213 223 249 242 246 224 190 191 194 196 202 203 200 200 196 185 187 187 188 193 204 216 214 199 197 192 192 194 192 194 195 189 180 181 187 187
253 228 131 105 136 210 229 217 216 201 166 150 138 140 137 152 195 180 260 221 218 172 151 159 177 199 208 203 194 190 191 195 203 206 209 208 208 213 207 207 204 199 196 195 186 181 184 182 178 181 185 189 192 191
229 225 169 160 209 218 231 236 223 237 234 186 136 130 128 175 246 284 250 212 179 180 184 188 195 202 208 204 197 192 191 195 196 203 216 215 215 217 210 202 200 198 198 198 194 191 188 187 188 188 193 193 190 189
210 200 156 161 267 185 178 174 190 181 193 172 147 151 139 121 246 249 277 220 197 191 203 209 208 211 210 215 211 204 201 195 203 209 209 215 211 205 200 197 194 195 195 193 190 189 190 191 190 194 194 188 182 183
205 207 208 161 155 175 179 174 210 246 204 209 204 193 180 176 199 221 264 226 217 218 223 225 222 209 210 211 211 215 227 227 221 207 196 191 192 192 189 190 191 192 191 189 188 186 186 189 191 188 184 179 178 179